Location: Gro�sch�nbrunn
(49.5760°N, 11.8868°E)
Time: 22:49:51
(UTC+00:00)

Spot 2 Rocket - Pass Details

Date: 18 September 2020
Orbit: 758 x 772 km, 98.6° (Epoch: 20 October)

Event Time Altitude Azimuth Distance (km) Brightness Sun altitude
Exits shadow 19:48:06 53° 73° (ENE) 933 3.6 -23.7°
Maximum altitude 19:48:12 53° 69° (ENE) 932 3.7 -23.7°
Drops below altitude 10° 19:53:06 10° 353° (N) 2,300 6.5 -24.3°
Sets 19:55:27 0° 349° (N) 3,230 7.4 -24.6°
